FW2882 Weather Reports


time (UTC)temp
C
wind
direction
speed
KPH
gust
KPH
rain 1hr
cm
rain 24hr
cm
rain mn
cm
humidity
%
barometer
mb
20260906104027 21 97 4.8 9.7 0.00 0.00 0.00 91 1017.0
20260906103525 21 85 1.6 9.7 0.00 0.00 0.00 91 1017.0
20260906103504 21 84 3.2 3.2 0.00 0.00 0.00 91 1015.9
20260906103033 21 97 4.8 9.7 0.00 0.00 0.00 91 1017.0
20260906102526 21 84 3.2 9.7 0.00 0.00 0.00 91 1016.9
20260906102504 21 92 3.2 3.2 0.00 0.00 0.00 91 1015.9
20260906102032 21 90 3.2 4.8 0.00 0.00 0.00 91 1016.8
20260906102004 21 90 1.6 1.6 0.00 0.00 0.00 91 1015.6
20260906101524 21 98 1.6 6.4 0.00 0.00 0.00 91 1016.8
20260906101026 21 83 3.2 6.4 0.00 0.00 0.00 91 1016.8
20260906100525 21 94 1.6 6.4 0.00 0.00 0.00 90 1016.7
20260906100504 21 88 1.6 1.6 0.00 0.00 0.00 90 1015.6
20260906100004 21 101 1.6 1.6 0.00 0.00 0.00 90 1015.6
20260906095524 21 92 0.0 6.4 0.00 0.00 0.00 90 1016.8
20260906095504 21 92 0.0 0.0 0.00 0.00 0.00 90 1015.6
20260906095029 21 92 1.6 6.4 0.00 0.00 0.00 90 1016.7
20260906095004 21 92 1.6 1.6 0.00 0.00 0.00 90 1015.6
20260906094030 21 76 0.0 6.4 0.00 0.00 0.00 90 1016.7
20260906094004 21 76 1.6 1.6 0.00 0.00 0.00 90 1015.6
20260906093524 21 96 3.2 4.8 0.00 0.00 0.00 90 1016.7
20260906093504 21 100 1.6 1.6 0.00 0.00 0.00 90 1015.6
20260906093033 21 101 0.0 4.8 0.00 0.00 0.00 90 1016.8
20260906092525 21 103 0.0 4.8 0.00 0.00 0.00 90 1016.7
20260906092505 22 102 1.6 1.6 0.00 0.00 0.00 90 1015.6
20260906092026 21 51 0.0 9.7 0.00 0.00 0.00 89 1016.6
20260906092004 22 51 1.6 1.6 0.00 0.00 0.00 89 1015.6
20260906091525 21 87 1.6 9.7 0.00 0.00 0.00 89 1016.6
20260906091504 22 86 1.6 1.6 0.00 0.00 0.00 89 1015.6
20260906091005 22 86 1.6 1.6 0.00 0.00 0.00 89 1015.2
20260906090525 21 78 1.6 6.4 0.00 0.00 0.00 89 1016.5
20260906090504 22 78 3.2 3.2 0.00 0.00 0.00 89 1015.2
20260906090029 21 86 3.2 6.4 0.00 0.00 0.00 88 1016.5
20260906085523 21 84 3.2 6.4 0.00 0.00 0.00 88 1016.5
20260906085030 21 84 3.2 6.4 0.00 0.00 0.00 88 1016.6
20260906085004 22 88 1.6 1.6 0.00 0.00 0.00 88 1015.2
20260906084523 21 57 0.0 4.8 0.00 0.00 0.00 88 1016.6
20260906084027 21 81 1.6 9.7 0.00 0.00 0.00 88 1016.7
20260906083524 21 88 4.8 9.7 0.00 0.00 0.00 88 1016.7
20260906083504 22 86 1.6 1.6 0.00 0.00 0.00 88 1015.6
20260906083027 21 90 3.2 4.8 0.00 0.00 0.00 88 1016.7
20260906082523 22 88 1.6 4.8 0.00 0.00 0.00 88 1016.8
20260906082504 22 88 1.6 1.6 0.00 0.00 0.00 88 1015.6
20260906081524 22 110 0.0 4.8 0.00 0.00 0.00 88 1016.8
20260906081504 22 110 0.0 0.0 0.00 0.00 0.00 88 1015.6
20260906081032 22 111 4.8 4.8 0.00 0.00 0.00 88 1016.7
20260906081004 22 67 1.6 1.6 0.00 0.00 0.00 88 1015.6
20260906080524 22 68 1.6 4.8 0.00 0.00 0.00 88 1016.7
20260906080031 22 86 0.0 4.8 0.00 0.00 0.00 87 1016.7
20260906080004 22 86 0.0 0.0 0.00 0.00 0.00 87 1015.6
20260906075524 22 96 0.0 3.2 0.00 0.00 0.00 87 1016.6
20260906075029 22 93 0.0 3.2 0.00 0.00 0.00 87 1016.7
20260906074525 22 95 0.0 3.2 0.00 0.00 0.00 87 1016.7
20260906074029 22 95 0.0 3.2 0.00 0.00 0.00 87 1016.7
20260906074004 22 95 0.0 0.0 0.00 0.00 0.00 87 1015.6
20260906073524 22 101 1.6 3.2 0.00 0.00 0.00 87 1016.7
20260906073504 22 102 0.0 0.0 0.00 0.00 0.00 87 1015.6
20260906073026 22 101 0.0 4.8 0.00 0.00 0.00 87 1016.7
20260906072524 22 101 0.0 4.8 0.00 0.00 0.00 87 1016.6
20260906072028 22 80 0.0 3.2 0.00 0.00 0.00 87 1016.6
20260906072004 22 80 0.0 0.0 0.00 0.00 0.00 87 1015.2
20260906071525 22 86 0.0 4.8 0.00 0.00 0.00 87 1016.6
20260906071504 22 86 0.0 0.0 0.00 0.00 0.00 87 1015.2
20260906071031 22 86 1.6 4.8 0.00 0.00 0.00 87 1016.6
20260906070524 22 94 0.0 0.0 0.00 0.00 0.00 87 1016.6
20260906070504 22 94 0.0 0.0 0.00 0.00 0.00 87 1015.2
20260906070029 22 94 0.0 1.6 0.00 0.00 0.00 88 1016.7
20260906070004 22 94 0.0 0.0 0.00 0.00 0.00 88 1015.6
20260906065004 22 94 0.0 0.0 0.00 0.00 0.00 88 1015.6
20260906063525 22 79 0.0 4.8 0.00 0.00 0.00 88 1016.7
20260906063505 22 79 0.0 0.0 0.00 0.00 0.00 88 1015.6
20260906063029 22 70 0.0 4.8 0.00 0.00 0.00 88 1016.7
20260906062524 22 79 0.0 4.8 0.00 0.00 0.00 88 1016.7
20260906062026 22 77 3.2 4.8 0.00 0.00 0.00 88 1016.7
20260906061524 22 77 0.0 3.2 0.00 0.00 0.00 88 1016.8
20260906061505 22 77 0.0 0.0 0.00 0.00 0.00 88 1015.6
20260906061030 22 78 0.0 4.8 0.00 0.00 0.00 88 1016.7
20260906060524 22 80 0.0 4.8 0.00 0.00 0.00 87 1016.7
20260906060504 22 80 0.0 0.0 0.00 0.00 0.00 87 1015.2
20260906060031 22 82 0.0 4.8 0.00 0.00 0.00 87 1016.6
20260906055527 22 84 0.0 9.7 0.00 0.00 0.00 87 1016.5
20260906055505 22 84 1.6 1.6 0.00 0.00 0.00 87 1015.2
20260906055030 22 82 3.2 9.7 0.00 0.00 0.00 87 1016.4
20260906054527 22 94 4.8 9.7 0.00 0.00 0.00 87 1016.2
20260906054504 22 73 1.6 1.6 0.00 0.00 0.00 87 1014.9
20260906054032 22 78 1.6 9.7 0.00 0.00 0.00 87 1016.2
20260906053528 22 94 0.0 11.3 0.00 0.00 0.00 87 1016.2
20260906053504 22 94 1.6 1.6 0.00 0.00 0.00 87 1014.9
20260906052528 22 115 1.6 4.8 0.00 0.00 0.00 88 1016.2
20260906052504 22 117 1.6 1.6 0.00 0.00 0.00 88 1014.9
20260906052029 22 96 0.0 9.7 0.00 0.00 0.00 88 1016.2
20260906052004 22 96 1.6 1.6 0.00 0.00 0.00 88 1014.9
20260906051528 22 91 0.0 9.7 0.00 0.00 0.00 88 1016.2
20260906051505 22 91 1.6 1.6 0.00 0.00 0.00 88 1014.9
20260906050528 22 98 0.0 6.4 0.00 0.00 0.00 88 1016.1
20260906050504 22 98 1.6 1.6 0.00 0.00 0.00 88 1014.9
20260906050005 22 102 3.2 3.2 0.00 0.00 0.00 88 1014.6
20260906045527 22 90 0.0 12.9 0.00 0.00 0.00 88 1015.9
20260906045004 22 88 3.2 3.2 0.00 0.00 0.00 88 1014.6
20260906044526 22 70 3.2 9.7 0.00 0.00 0.00 88 1015.7
20260906044031 22 86 0.0 8.0 0.00 0.00 0.00 87 1015.7
20260906044005 22 85 3.2 3.2 0.00 0.00 0.00 87 1014.2
20260906043526 22 109 6.4 8.0 0.00 0.00 0.00 87 1015.8
20260906043030 22 88 3.2 12.9 0.00 0.00 0.00 88 1015.8
20260906043004 23 84 1.6 1.6 0.00 0.00 0.00 88 1014.6
20260906042526 22 90 0.0 12.9 0.00 0.00 0.00 88 1015.7
20260906042035 22 75 3.2 12.9 0.00 0.00 0.00 88 1015.7
20260906041526 22 86 4.8 6.4 0.00 0.00 0.00 88 1015.7
20260906041035 22 86 3.2 6.4 0.00 0.00 0.00 88 1015.7
20260906041005 23 86 1.6 1.6 0.00 0.00 0.00 88 1014.6
20260906040526 22 84 1.6 11.3 0.00 0.00 0.00 88 1015.6
20260906040504 23 95 1.6 1.6 0.00 0.00 0.00 88 1014.2
20260906040029 22 85 3.2 11.3 0.00 0.00 0.00 88 1015.6
20260906035526 23 61 0.0 6.4 0.00 0.00 0.00 89 1015.6
20260906035029 23 92 3.2 6.4 0.00 0.00 0.00 89 1015.6
20260906035004 23 92 1.6 1.6 0.00 0.00 0.00 89 1014.2
20260906034527 23 69 1.6 6.4 0.00 0.00 0.00 89 1015.6
20260906034029 23 92 3.2 6.4 0.00 0.00 0.00 89 1015.6
20260906034004 23 101 1.6 1.6 0.00 0.00 0.00 89 1014.2
20260906033527 23 80 0.0 9.7 0.00 0.00 0.00 89 1015.5
20260906033036 23 90 6.4 9.7 0.00 0.00 0.00 89 1015.5
20260906032029 23 92 6.4 9.7 0.00 0.00 0.00 89 1015.4
20260906032004 23 98 1.6 1.6 0.00 0.00 0.00 89 1013.9
20260906031526 23 65 4.8 6.4 0.00 0.00 0.00 89 1015.4
20260906031028 23 81 3.2 9.7 0.00 0.00 0.00 89 1015.3
20260906031004 23 81 0.0 0.0 0.00 0.00 0.00 89 1013.9
20260906030526 23 76 1.6 8.0 0.00 0.00 0.00 89 1015.4
20260906030504 23 76 0.0 0.0 0.00 0.00 0.00 89 1013.9
20260906030028 23 65 3.2 8.0 0.00 0.00 0.00 89 1015.3
20260906030004 23 73 0.0 0.0 0.00 0.00 0.00 89 1013.9
20260906025526 22 83 3.2 4.8 0.00 0.00 0.00 89 1015.4
20260906025504 23 104 0.0 0.0 0.00 0.00 0.00 89 1014.2
20260906025030 22 106 3.2 4.8 0.00 0.00 0.00 89 1015.4
20260906024527 22 85 1.6 6.4 0.00 0.00 0.00 89 1015.4
20260906024504 23 85 1.6 1.6 0.00 0.00 0.00 89 1013.9
20260906024027 22 82 0.0 6.4 0.00 0.00 0.00 89 1015.6
20260906023526 22 76 0.0 3.2 0.00 0.00 0.00 89 1015.5
20260906023504 23 76 0.0 0.0 0.00 0.00 0.00 89 1014.2
20260906023034 22 92 0.0 3.2 0.00 0.00 0.00 89 1015.7
20260906022526 22 29 1.6 3.2 0.00 0.00 0.00 89 1015.6
20260906022504 23 67 0.0 0.0 0.00 0.00 0.00 89 1014.2
20260906021526 22 52 0.0 6.4 0.00 0.00 0.00 89 1015.6
20260906021033 22 74 0.0 4.8 0.00 0.00 0.00 89 1015.6
20260906020526 22 53 0.0 3.2 0.00 0.00 0.00 88 1015.7
20260906020504 23 53 0.0 0.0 0.00 0.00 0.00 88 1014.2
20260906020029 22 49 0.0 0.0 0.00 0.00 0.00 88 1015.7
20260906020004 22 49 0.0 0.0 0.00 0.00 0.00 88 1014.2
20260906015527 22 49 0.0 1.6 0.00 0.00 0.00 88 1015.7
20260906015504 22 49 0.0 0.0 0.00 0.00 0.00 88 1014.2
20260906015036 22 49 0.0 3.2 0.00 0.00 0.00 87 1015.7
20260906014527 22 64 0.0 3.2 0.00 0.00 0.00 87 1015.4
20260906014504 22 64 0.0 0.0 0.00 0.00 0.00 87 1014.2
20260906014030 22 64 0.0 4.8 0.00 0.00 0.00 87 1015.4
20260906013529 22 68 0.0 4.8 0.00 0.00 0.00 87 1015.3
20260906013504 22 68 1.6 1.6 0.00 0.00 0.00 87 1013.9
20260906013029 22 350 1.6 4.8 0.00 0.00 0.00 87 1015.1
20260906012504 22 76 1.6 1.6 0.00 0.00 0.00 87 1013.5
20260906012035 22 73 0.0 4.8 0.00 0.00 0.00 87 1015.0
20260906011527 22 70 0.0 4.8 0.00 0.00 0.00 87 1015.1
20260906010527 22 72 0.0 4.8 0.00 0.00 0.00 87 1015.0
20260906010505 22 72 0.0 0.0 0.00 0.00 0.00 87 1013.5
20260906010004 22 54 0.0 0.0 0.00 0.00 0.00 87 1013.5
20260906005526 22 38 1.6 6.4 0.00 0.00 0.00 87 1014.9
20260906005504 22 38 0.0 0.0 0.00 0.00 0.00 87 1013.5
20260906005035 22 77 1.6 9.7 0.00 0.00 0.00 87 1014.8
20260906004526 22 295 0.0 9.7 0.00 0.00 0.00 87 1014.7
20260906004504 22 79 0.0 0.0 0.00 0.00 0.00 87 1013.2
20260906004030 22 51 0.0 4.8 0.00 0.00 0.00 86 1014.6
20260906004004 23 67 0.0 0.0 0.00 0.00 0.00 86 1013.2
20260906003526 22 55 0.0 6.4 0.00 0.00 0.00 86 1014.5
20260906003035 22 74 0.0 11.3 0.00 0.00 0.00 86 1014.6
20260906003004 23 74 0.0 0.0 0.00 0.00 0.00 86 1013.2
20260906002526 22 350 1.6 9.7 0.00 0.00 0.00 86 1014.6
20260906002004 23 78 1.6 1.6 0.00 0.00 0.00 86 1013.2
20260906001526 23 121 1.6 4.8 0.00 0.00 0.00 86 1014.6
20260906001028 23 62 1.6 8.0 0.00 0.00 0.00 86 1014.5
20260906001004 23 57 1.6 1.6 0.00 0.00 0.00 86 1013.2
20260906000527 23 78 1.6 8.0 0.00 0.00 0.00 85 1014.5
20260906000504 23 63 1.6 1.6 0.00 0.00 0.00 85 1013.2
20260906000029 23 26 1.6 6.4 0.00 0.00 0.00 85 1014.4
20260905235504 23 58 1.6 1.6 0.00 0.00 0.00 85 1013.2
20260905235035 23 5 1.6 8.0 0.00 0.00 0.00 85 1014.5
20260905234504 23 59 1.6 1.6 0.00 0.00 0.00 85 1012.9
20260905234028 23 324 1.6 6.4 0.00 0.00 0.00 85 1014.4
20260905234004 23 317 1.6 1.6 0.00 0.00 0.00 85 1012.9
20260905233527 23 73 1.6 6.4 0.00 0.00 0.00 85 1014.3
20260905233029 23 36 3.2 6.4 0.00 0.00 0.00 85 1014.3
20260905233004 24 35 1.6 1.6 0.00 0.00 0.00 85 1012.9
20260905232526 23 338 0.0 6.4 0.00 0.00 0.00 84 1014.3
20260905232504 24 338 1.6 1.6 0.00 0.00 0.00 84 1012.9
20260905232028 23 74 1.6 6.4 0.00 0.00 0.00 84 1014.3
20260905231504 24 53 1.6 1.6 0.00 0.00 0.00 83 1012.9
20260905231028 24 66 0.0 8.0 0.00 0.00 0.00 84 1014.4
20260905230504 24 41 1.6 1.6 0.00 0.00 0.00 83 1012.9
20260905230031 24 60 1.6 6.4 0.00 0.00 0.00 83 1014.5
20260905225527 24 49 0.0 6.4 0.00 0.00 0.00 82 1014.4
20260905225504 24 50 0.0 0.0 0.00 0.00 0.00 82 1012.9
20260905224527 24 93 6.4 6.4 0.00 0.00 0.00 82 1014.2
20260905224029 24 49 0.0 6.4 0.00 0.00 0.00 81 1014.2
20260905224004 25 49 0.0 0.0 0.00 0.00 0.00 81 1012.9
20260905223526 24 63 3.2 8.0 0.00 0.00 0.00 81 1014.2
20260905223027 24 56 3.2 6.4 0.00 0.00 0.00 81 1014.3
20260905223004 25 49 1.6 1.6 0.00 0.00 0.00 81 1012.9
20260905222526 25 57 1.6 9.7 0.00 0.00 0.00 81 1014.3
20260905222035 25 76 1.6 11.3 0.00 0.00 0.00 80 1014.4
20260905222005 25 76 1.6 1.6 0.00 0.00 0.00 80 1012.9
20260905221526 25 60 4.8 6.4 0.00 0.00 0.00 81 1014.5
20260905221029 25 110 0.0 8.0 0.00 0.00 0.00 80 1014.5
20260905221004 25 110 1.6 1.6 0.00 0.00 0.00 80 1012.9
20260905220526 25 65 1.6 8.0 0.00 0.00 0.00 80 1014.4
20260905220033 25 63 3.2 6.4 0.00 0.00 0.00 79 1014.5
20260905220004 25 47 3.2 3.2 0.00 0.00 0.00 79 1012.9
20260905215526 25 80 1.6 9.7 0.00 0.00 0.00 79 1014.4
20260905215027 25 107 3.2 9.7 0.00 0.00 0.00 78 1014.3
20260905215004 26 64 3.2 3.2 0.00 0.00 0.00 78 1012.9
20260905214526 26 115 0.0 9.7 0.00 0.00 0.00 77 1014.4
20260905214504 26 277 3.2 3.2 0.00 0.00 0.00 77 1012.9
20260905214028 26 15 3.2 9.7 0.00 0.00 0.00 76 1014.3
20260905214004 26 86 3.2 3.2 0.00 0.00 0.00 76 1012.9
20260905213504 26 30 1.6 1.6 0.00 0.00 0.00 75 1012.5
20260905213028 26 90 3.2 4.8 0.00 0.00 0.00 75 1014.2
20260905212527 27 26 3.2 4.8 0.00 0.00 0.00 74 1014.1
20260905211526 27 78 0.0 6.4 0.00 0.00 0.00 74 1014.1
20260905211504 27 78 1.6 1.6 0.00 0.00 0.00 74 1012.5
20260905211029 27 49 0.0 8.0 0.00 0.00 0.00 74 1014.0
20260905210528 27 82 6.4 8.0 0.00 0.00 0.00 73 1014.1
20260905210030 27 43 3.2 8.0 0.00 0.00 0.00 74 1014.0
20260905210004 28 306 1.6 1.6 0.00 0.00 0.00 74 1012.5
20260905205527 27 67 0.0 8.0 0.00 0.00 0.00 74 1014.0
20260905205504 27 67 1.6 1.6 0.00 0.00 0.00 74 1012.5
20260905205030 27 72 3.2 6.4 0.00 0.00 0.00 74 1014.0
20260905204526 27 20 3.2 6.4 0.00 0.00 0.00 73 1014.0
20260905204504 28 16 1.6 1.6 0.00 0.00 0.00 73 1012.5
20260905203504 28 57 1.6 1.6 0.00 0.00 0.00 72 1012.5
20260905203035 28 84 6.4 9.7 0.00 0.00 0.00 72 1014.2
20260905202527 28 36 1.6 6.4 0.00 0.00 0.00 71 1014.2
20260905202504 28 68 1.6 1.6 0.00 0.00 0.00 71 1012.5
20260905202031 28 259 1.6 6.4 0.00 0.00 0.00 70 1014.2
20260905201527 28 329 3.2 6.4 0.00 0.00 0.00 70 1014.2
20260905201034 28 71 4.8 6.4 0.00 0.00 0.00 69 1014.2
20260905201004 29 33 1.6 1.6 0.00 0.00 0.00 69 1012.5
20260905200526 29 59 4.8 4.8 0.00 0.00 0.00 69 1014.1
20260905200036 29 146 1.6 6.4 0.00 0.00 0.00 71 1014.2
20260905200004 30 146 1.6 1.6 0.00 0.00 0.00 71 1012.5
20260905195526 29 333 3.2 6.4 0.00 0.00 0.00 69 1014.1
20260905195036 29 5 0.0 6.4 0.00 0.00 0.00 69 1014.1
20260905195004 30 351 1.6 1.6 0.00 0.00 0.00 70 1012.5
20260905194526 29 76 1.6 6.4 0.00 0.00 0.00 69 1014.1
20260905193526 30 63 3.2 12.9 0.00 0.00 0.00 68 1014.1
20260905193504 30 50 1.6 1.6 0.00 0.00 0.00 68 1012.5
20260905193031 30 264 3.2 12.9 0.00 0.00 0.00 67 1014.1
20260905192526 30 67 3.2 6.4 0.00 0.00 0.00 70 1014.1
20260905192504 30 67 1.6 1.6 0.00 0.00 0.00 69 1012.5
20260905192033 30 327 0.0 6.4 0.00 0.00 0.00 68 1014.2
20260905192004 30 327 1.6 1.6 0.00 0.00 0.00 69 1012.5
20260905191032 30 69 3.2 6.4 0.00 0.00 0.00 66 1014.0
20260905191005 30 68 1.6 1.6 0.00 0.00 0.00 66 1012.5
20260905190526 30 50 1.6 6.4 0.00 0.00 0.00 65 1014.0
20260905190029 30 35 4.8 6.4 0.00 0.00 0.00 68 1014.1
20260905185504 30 53 1.6 1.6 0.00 0.00 0.00 68 1012.5
20260905185029 30 81 0.0 4.8 0.00 0.00 0.00 68 1014.1
20260905184504 30 75 1.6 1.6 0.00 0.00 0.00 68 1012.5
20260905184029 30 43 1.6 4.8 0.00 0.00 0.00 67 1014.1
20260905184004 30 78 1.6 1.6 0.00 0.00 0.00 67 1012.5
20260905183526 30 40 0.0 6.4 0.00 0.00 0.00 69 1014.1
20260905183035 30 62 4.8 6.4 0.00 0.00 0.00 67 1014.0
20260905182526 30 49 1.6 6.4 0.00 0.00 0.00 68 1014.0
20260905182504 30 89 1.6 1.6 0.00 0.00 0.00 68 1012.5
20260905182031 30 91 0.0 6.4 0.00 0.00 0.00 66 1014.1
20260905182004 30 59 1.6 1.6 0.00 0.00 0.00 66 1012.5
20260905181527 30 75 3.2 9.7 0.00 0.00 0.00 68 1014.1
20260905180526 30 60 4.8 6.4 0.00 0.00 0.00 66 1014.1
20260905180504 31 68 3.2 3.2 0.00 0.00 0.00 66 1012.5
20260905180034 30 14 0.0 6.4 0.00 0.00 0.00 67 1014.1
20260905175525 31 68 1.6 6.4 0.00 0.00 0.00 65 1014.1
20260905175504 31 42 1.6 1.6 0.00 0.00 0.00 65 1012.5
20260905175033 31 78 0.0 4.8 0.00 0.00 0.00 67 1014.1
20260905174526 31 80 0.0 12.9 0.00 0.00 0.00 67 1014.0
20260905174504 31 74 1.6 1.6 0.00 0.00 0.00 68 1012.5
20260905174033 30 87 1.6 12.9 0.00 0.00 0.00 68 1014.0
20260905174004 31 87 1.6 1.6 0.00 0.00 0.00 66 1012.5
20260905173525 31 59 0.0 9.7 0.00 0.00 0.00 68 1013.9
20260905173034 31 62 1.6 12.9 0.00 0.00 0.00 65 1014.1
20260905172526 31 116 4.8 12.9 0.00 0.00 0.00 66 1014.1
20260905172504 31 112 3.2 3.2 0.00 0.00 0.00 66 1012.5
20260905172029 31 50 1.6 6.4 0.00 0.00 0.00 67 1014.1
20260905172004 31 47 1.6 1.6 0.00 0.00 0.00 67 1012.5
20260905171504 31 261 0.0 0.0 0.00 0.00 0.00 68 1012.5
20260905171026 31 57 1.6 3.2 0.00 0.00 0.00 68 1014.1
20260905170526 31 32 0.0 3.2 0.00 0.00 0.00 66 1014.2
20260905170504 31 30 0.0 0.0 0.00 0.00 0.00 67 1012.5
20260905170028 31 105 1.6 3.2 0.00 0.00 0.00 68 1014.2
20260905165526 31 360 0.0 6.4 0.00 0.00 0.00 70 1014.2
20260905165504 31 360 0.0 0.0 0.00 0.00 0.00 70 1012.5
20260905165029 31 360 3.2 6.4 0.00 0.00 0.00 69 1014.2
20260905164526 31 36 0.0 4.8 0.00 0.00 0.00 71 1014.2
20260905164504 31 32 0.0 0.0 0.00 0.00 0.00 71 1012.5
20260905164032 31 70 1.6 3.2 0.00 0.00 0.00 72 1014.2
20260905163526 30 67 0.0 6.4 0.00 0.00 0.00 72 1014.2
20260905163504 31 67 0.0 0.0 0.00 0.00 0.00 71 1012.5
20260905162504 30 43 0.0 0.0 0.00 0.00 0.00 75 1012.5
20260905162030 30 9 0.0 4.8 0.00 0.00 0.00 75 1014.3
20260905161526 29 76 0.0 6.4 0.00 0.00 0.00 76 1014.3
20260905161504 30 76 1.6 1.6 0.00 0.00 0.00 76 1012.5
20260905161029 29 96 1.6 6.4 0.00 0.00 0.00 76 1014.3
20260905160505 30 81 1.6 1.6 0.00 0.00 0.00 76 1012.5
20260905160030 29 84 1.6 9.7 0.00 0.00 0.00 76 1014.3
20260905155504 30 55 1.6 1.6 0.00 0.00 0.00 77 1012.5
20260905155031 29 71 3.2 6.4 0.00 0.00 0.00 79 1014.1
20260905154527 28 80 0.0 6.4 0.00 0.00 0.00 79 1014.0
20260905154504 29 80 1.6 1.6 0.00 0.00 0.00 79 1012.5
20260905154033 28 79 3.2 6.4 0.00 0.00 0.00 78 1013.9
20260905153526 28 76 1.6 9.7 0.00 0.00 0.00 79 1014.0
20260905153033 28 105 0.0 9.7 0.00 0.00 0.00 79 1014.0
20260905153004 28 105 1.6 1.6 0.00 0.00 0.00 79 1012.5
20260905152527 28 92 3.2 6.4 0.00 0.00 0.00 79 1014.0
20260905152029 28 78 0.0 6.4 0.00 0.00 0.00 78 1014.0
20260905152004 28 78 1.6 1.6 0.00 0.00 0.00 77 1012.5
20260905151525 28 78 4.8 6.4 0.00 0.00 0.00 77 1014.0
20260905150528 29 360 0.0 6.4 0.00 0.00 0.00 76 1013.9
20260905150504 30 360 1.6 1.6 0.00 0.00 0.00 76 1012.2
20260905150035 30 77 1.6 6.4 0.00 0.00 0.00 76 1013.9
20260905150004 30 76 1.6 1.6 0.00 0.00 0.00 76 1012.2
20260905145525 30 78 3.2 4.8 0.00 0.00 0.00 76 1013.7
20260905145030 30 89 1.6 4.8 0.00 0.00 0.00 76 1013.7
20260905145004 30 103 1.6 1.6 0.00 0.00 0.00 76 1012.2
20260905144004 30 55 0.0 0.0 0.00 0.00 0.00 79 1011.9
20260905143526 29 21 1.6 6.4 0.00 0.00 0.00 80 1013.4
20260905143504 30 21 0.0 0.0 0.00 0.00 0.00 80 1011.9
20260905143031 29 104 1.6 4.8 0.00 0.00 0.00 80 1013.4
20260905142525 28 76 1.6 3.2 0.00 0.00 0.00 81 1013.3
20260905142504 29 76 0.0 0.0 0.00 0.00 0.00 80 1011.9
20260905141504 28 32 0.0 0.0 0.00 0.00 0.00 81 1011.9
20260905141030 28 100 0.0 0.0 0.00 0.00 0.00 82 1013.4
20260905140525 28 101 0.0 6.4 0.00 0.00 0.00 83 1013.5
20260905140504 28 101 0.0 0.0 0.00 0.00 0.00 83 1011.9
20260905140027 28 105 6.4 6.4 0.00 0.00 0.00 84 1013.6
20260905140004 28 13 0.0 0.0 0.00 0.00 0.00 84 1012.2
20260905135525 28 11 0.0 1.6 0.00 0.00 0.00 85 1013.6
20260905135504 28 11 0.0 0.0 0.00 0.00 0.00 85 1012.2
20260905135029 27 11 0.0 3.2 0.00 0.00 0.00 85 1013.6
20260905135004 28 11 0.0 0.0 0.00 0.00 0.00 85 1012.2
20260905134527 27 11 1.6 3.2 0.00 0.00 0.00 87 1013.4
20260905134504 27 360 0.0 0.0 0.00 0.00 0.00 87 1011.9
20260905133525 26 312 1.6 3.2 0.00 0.00 0.00 89 1013.3
20260905133504 27 312 0.0 0.0 0.00 0.00 0.00 89 1011.9
20260905133033 26 250 0.0 0.0 0.00 0.00 0.00 90 1013.3
20260905132504 26 250 0.0 0.0 0.00 0.00 0.00 90 1011.9
20260905132028 26 250 0.0 0.0 0.00 0.00 0.00 90 1013.2
20260905131525 26 250 0.0 0.0 0.00 0.00 0.00 90 1013.3
20260905131504 26 250 0.0 0.0 0.00 0.00 0.00 90 1011.9
20260905131032 26 250 0.0 0.0 0.00 0.00 0.00 91 1013.3
20260905131004 26 250 0.0 0.0 0.00 0.00 0.00 91 1011.9
20260905130527 25 250 0.0 0.0 0.00 0.00 0.00 91 1013.2
20260905130027 25 250 0.0 0.0 0.00 0.00 0.00 92 1013.1
20260905130004 26 250 0.0 0.0 0.00 0.00 0.00 92 1011.5
20260905125525 25 250 0.0 0.0 0.00 0.00 0.00 92 1013.1
20260905125504 25 250 0.0 0.0 0.00 0.00 0.00 92 1011.5
20260905125029 25 250 0.0 0.0 0.00 0.00 0.00 92 1013.1
20260905124525 25 250 0.0 0.0 0.00 0.00 0.00 92 1013.0
20260905124504 25 250 0.0 0.0 0.00 0.00 0.00 92 1011.5
20260905124028 25 250 0.0 0.0 0.00 0.00 0.00 93 1013.0
20260905124003 25 250 0.0 0.0 0.00 0.00 0.00 93 1011.5
20260905123524 25 250 0.0 0.0 0.00 0.00 0.00 93 1013.0
20260905123504 25 250 0.0 0.0 0.00 0.00 0.00 93 1011.5
20260905123034 25 250 0.0 0.0 0.00 0.00 0.00 93 1012.9
20260905122525 25 250 0.0 0.0 0.00 0.00 0.00 93 1012.8
20260905122504 25 250 0.0 0.0 0.00 0.00 0.00 93 1011.2
20260905122031 25 250 0.0 0.0 0.00 0.00 0.00 93 1012.8
20260905122004 25 250 0.0 0.0 0.00 0.00 0.00 93 1011.2
20260905121525 25 250 0.0 0.0 0.00 0.00 0.00 93 1012.7
20260905121026 25 250 0.0 0.0 0.00 0.00 0.00 93 1012.6
20260905121005 25 250 0.0 0.0 0.00 0.00 0.00 93 1011.2
20260905120526 25 250 0.0 0.0 0.00 0.00 0.00 93 1012.5
20260905120504 25 250 0.0 0.0 0.00 0.00 0.00 93 1010.8
20260905115525 24 250 0.0 0.0 0.00 0.00 0.00 92 1012.4
20260905115504 25 250 0.0 0.0 0.00 0.00 0.00 92 1010.8
20260905114525 24 250 0.0 0.0 0.00 0.00 0.00 92 1012.4
20260905114504 25 250 0.0 0.0 0.00 0.00 0.00 92 1010.8
20260905114028 24 250 0.0 0.0 0.00 0.00 0.00 92 1012.4
20260905113526 24 250 0.0 0.0 0.00 0.00 0.00 92 1012.3
20260905113035 24 250 0.0 0.0 0.00 0.00 0.00 92 1012.3
20260905113004 25 250 0.0 0.0 0.00 0.00 0.00 92 1010.8
20260905112524 24 250 0.0 0.0 0.00 0.00 0.00 92 1012.1
20260905112504 25 250 0.0 0.0 0.00 0.00 0.00 92 1010.5
20260905112004 25 250 0.0 0.0 0.00 0.00 0.00 92 1010.5
20260905111526 24 250 0.0 0.0 0.00 0.00 0.00 92 1012.1
20260905111029 24 250 0.0 0.0 0.00 0.00 0.00 92 1012.0
20260905110030 24 250 0.0 0.0 0.00 0.00 0.00 92 1012.0
20260905105526 24 250 0.0 0.0 0.00 0.00 0.00 92 1012.1
20260905105029 24 250 0.0 0.0 0.00 0.00 0.00 92 1012.1
20260905104525 24 250 0.0 0.0 0.00 0.00 0.00 92 1012.1